Погода в Коста-Дораде

Испания     41°10′28″N   1°29′09″E
темп.,
°C
ветер,
м/с
пор.,
м/с
влажн.,
%
обл.,
%
осадки,
мм/ч
давл.,
гПа
погр.,
м
23 апреля, пт
пт2323:00+12с117216 0.0 102073
02:00+10ссз21780 0.0 102017
05:00+10с22760 0.0 101931
08:00+11ссв22630 0.0 102056
11:00+16вюв46440 0.0 1021966
14:00+17юв56480 0.0 10211059
17:00+17юв45525 0.0 1020885
20:00+14вюв236337 0.0 1020251
24 апреля, сб
сб2423:00+12всв127499 0.0 1022140
02:00+11с22745 0.0 102244
05:00+10с237375 0.0 102156
08:00+11ссв236775 0.0 102194
11:00+16вюв45505 0.0 1021751
14:00+18юв4450100 0.0 1021891
17:00+17юв3452100 0.0 1019716
20:00+15юв2365100 0.0 1020217
25 апреля, вс
вс2523:00+14з0169100 0.0 1020158
02:00+13ссв23695 0.0 101885
05:00+12ссв3471100 0.0 101789
08:00+13ссв4672100 0.3 1016189
11:00+18в5642100 0.0 1016807
14:00+19в78435 0.0 1015948
17:00+19в8104318 0.0 1013845
20:00+16всв7115469 0.0 1012587
26 апреля, пн
пн2623:00+15всв71358100 0.0 1012562
02:00+14св61264100 0.3 1010515
05:00+14св51165100 0.5 1008479
08:00+13св41170100 1.3 1007534
11:00+17в6859100 0.1 10051033
14:00+16вюв3470100 0.3 1005623
17:00+17ююз336763 0.4 1003896
20:00+14юз4682100 0.4 1004435
27 апреля, вт
вт2723:00+13зюз3590100 0.0 1005191
02:00+12зсз129475 0.0 100457
05:00+12ссз228661 0.0 100337
08:00+13сз228074 0.0 100361
11:00+18зюз2458100 0.0 1003959
14:00+20юз365082 0.1 10021523
17:00+20юз475489 0.5 1001883
20:00+19зюз6105423 0.5 1002836